Weather History for Jacksonville, IL

Change the Weather History Date:

Monday, May 27, 2013

  Actual Average (KSPI) Record (KSPI)
Temperature  
Mean Temperature 66 °F 67 °F  
Max Temperature 74 °F 78 °F 94 °F (1911)
Min Temperature 59 °F 56 °F 34 °F (1992)
Degree Days  
Heating Degree Days 0 2  
Month to date heating degree days 118  
Since 1 July heating degree days 5463  
Cooling Degree Days 2 4  
Month to date cooling degree days 66  
Year to date cooling degree days 86  
Growing Degree Days 16 (Base 50)    
Moisture  
Dew Point 63 °F    
Average Humidity 90    
Maximum Humidity 96    
Minimum Humidity 71    
Precipitation  
Precipitation 0.01 in 0.14 in 2.54 in (1888)
Month to date precipitation 3.67  
Year to date precipitation 13.44  
Snow  
Snow 0.00 in 0.00 in 0.00 in ()
Month to date snowfall 0.0  
Since 1 July snowfall 20.9  
Snow Depth -    
Sea Level Pressure  
Sea Level Pressure 29.91 in    
Wind  
Wind Speed 7 mph (SE)    
Max Wind Speed 22 mph    
Max Gust Speed 29 mph    
Visibility 9 miles    
Events Rain , Thunderstorm    
T = Trace of Precipitation, MM = Missing Value Source: NWS Daily Summary

Daily Weather History Graph

Daily Weather History Graph

Search for Another Location

Airport:

Trip Planner

Search our weather history database for the weather conditions in past years. The results will help you decide how hot, cold, wet, or windy it might be!

Date:

Astronomy

May. 27, 2013 Rise Set
Actual Time 5:37 AM CDT 8:19 PM CDT
Civil Twilight 5:05 AM CDT 8:51 PM CDT
Nautical Twilight 4:26 AM CDT 9:30 PM CDT
Astronomical Twilight 3:41 AM CDT 10:15 PM CDT
Moon 10:59 PM CDT (5/27) 8:14 AM CDT (5/27)
Length of Visible Light 15h 45m
Length of Day
14h 42m
Waning Gibbous, 91% of the Moon is Illuminated
May 27
Waning Gibbous
May 31
Last Quarter
Jun 8
New
Jun 16
First Quarter
Jun 23
Full

Hourly Weather History & Observations

Time (CDT) Temp. Dew Point Humidity Pressure Visibility Wind Dir Wind Speed Gust Speed Precip Events Conditions
12:15 AM 65.5 °F 62.8 °F 91% 30.02 in 10.0 mi NE 5.8 mph - N/A Rain Light Rain
12:35 AM 65.1 °F 62.8 °F 92% 30.03 in 10.0 mi NNE 5.8 mph - N/A Rain Light Rain
12:55 AM 63.5 °F 61.7 °F 94% 30.02 in 7.0 mi East 6.9 mph - N/A Rain Rain
1:15 AM 63.9 °F 62.4 °F 95% 30.02 in 7.0 mi Calm Calm - N/A   Mostly Cloudy
1:35 AM 64.0 °F 62.6 °F 95% 30.01 in 10.0 mi ENE 3.5 mph - N/A   Overcast
1:55 AM 64.4 °F 63.0 °F 95% 30.00 in 10.0 mi Calm Calm - N/A   Overcast
2:15 AM 64.9 °F 63.3 °F 94% 30.00 in 4.0 mi SSE 8.1 mph - 0.01 in Rain , Thunderstorm Heavy Thunderstorms and Rain
2:35 AM 63.3 °F 61.3 °F 93% 30.01 in 4.0 mi North 10.4 mph 18.4 mph 0.01 in Rain , Thunderstorm Heavy Thunderstorms and Rain
2:55 AM 62.8 °F 61.2 °F 94% 29.99 in 10.0 mi NNE 10.4 mph - 0.01 in Rain , Thunderstorm Light Thunderstorms and Rain
3:15 AM 62.4 °F 61.0 °F 95% 29.98 in 10.0 mi NE 10.4 mph - N/A Rain , Thunderstorm Light Thunderstorms and Rain
3:35 AM 61.2 °F 59.9 °F 96% 29.98 in 5.0 mi North 13.8 mph - N/A Rain , Thunderstorm Light Thunderstorms and Rain
3:55 AM 59.9 °F 58.6 °F 96% 29.97 in 7.0 mi NE 16.1 mph 25.3 mph N/A Rain , Thunderstorm Light Thunderstorms and Rain
4:15 AM 60.6 °F 59.4 °F 96% 29.94 in 7.0 mi East 17.3 mph - N/A Rain Light Rain
4:35 AM 61.0 °F 59.9 °F 96% 29.91 in 7.0 mi East 17.3 mph 21.9 mph N/A Rain Light Rain
4:55 AM 61.9 °F 60.4 °F 95% 29.91 in 10.0 mi ENE 17.3 mph - N/A   Scattered Clouds
5:15 AM 61.9 °F 60.3 °F 94% 29.93 in 10.0 mi East 11.5 mph - N/A Thunderstorm Mostly Cloudy
5:35 AM 62.2 °F 60.8 °F 95% 29.94 in 10.0 mi ENE 11.5 mph - N/A   Overcast
5:55 AM 62.4 °F 60.8 °F 94% 29.94 in 10.0 mi SSE 5.8 mph - N/A   Overcast
6:15 AM 62.6 °F 60.8 °F 94% 29.95 in 7.0 mi South 6.9 mph 10.4 mph N/A   Overcast
6:35 AM 64.4 °F 61.7 °F 91% 29.95 in 10.0 mi SSW 4.6 mph - N/A   Overcast
6:55 AM 64.8 °F 62.2 °F 92% 29.95 in 10.0 mi SW 4.6 mph - N/A   Overcast
7:15 AM 65.3 °F 62.8 °F 92% 29.95 in 10.0 mi West 6.9 mph - N/A   Overcast
7:35 AM 66.2 °F 63.5 °F 91% 29.95 in 10.0 mi SW 10.4 mph - N/A   Mostly Cloudy
7:55 AM 65.8 °F 63.1 °F 91% 29.96 in 10.0 mi West 13.8 mph 17.3 mph N/A   Overcast
8:15 AM 65.5 °F 63.0 °F 92% 29.98 in 10.0 mi West 12.7 mph 20.7 mph N/A   Overcast
8:35 AM 66.2 °F 63.5 °F 91% 29.98 in 10.0 mi West 13.8 mph 20.7 mph N/A   Mostly Cloudy
8:55 AM 67.3 °F 63.9 °F 89% 29.97 in 10.0 mi West 10.4 mph - N/A   Mostly Cloudy
9:15 AM 68.5 °F 64.2 °F 86% 29.96 in 10.0 mi West 13.8 mph 19.6 mph N/A   Scattered Clouds
9:35 AM 68.0 °F 63.9 °F 87% 29.96 in 10.0 mi NW 9.2 mph - N/A   Scattered Clouds
9:55 AM 68.4 °F 63.9 °F 85% 29.95 in 10.0 mi West 8.1 mph - N/A   Scattered Clouds
10:15 AM 69.1 °F 63.9 °F 83% 29.95 in 10.0 mi West 4.6 mph - N/A   Scattered Clouds
10:35 AM 69.6 °F 63.9 °F 82% 29.95 in 10.0 mi Calm Calm - N/A   Scattered Clouds
10:55 AM 70.7 °F 63.9 °F 79% 29.94 in 10.0 mi Calm Calm - N/A   Clear
11:15 AM 71.4 °F 63.5 °F 76% 29.94 in 10.0 mi Calm Calm - N/A   Clear
11:35 AM 71.8 °F 63.1 °F 74% 29.94 in 10.0 mi Calm Calm - N/A   Clear
11:55 AM 72.9 °F 64.9 °F 76% 29.94 in 10.0 mi SE 4.6 mph - N/A   Clear
12:15 PM 73.6 °F 65.3 °F 75% 29.94 in 10.0 mi SSE 6.9 mph - N/A   Clear
12:35 PM 73.4 °F 64.6 °F 74% 29.94 in 10.0 mi South 4.6 mph - N/A Thunderstorm Scattered Clouds
12:55 PM 74.1 °F 65.7 °F 75% 29.93 in 10.0 mi SSE 5.8 mph - N/A Thunderstorm Scattered Clouds
1:15 PM 73.6 °F 63.5 °F 71% 29.92 in 10.0 mi SE 8.1 mph - N/A Thunderstorm Thunderstorm
1:35 PM 71.6 °F 65.5 °F 81% 29.95 in 3.0 mi WNW 12.7 mph 18.4 mph N/A Rain , Thunderstorm Heavy Thunderstorms and Rain
1:55 PM 67.6 °F 65.3 °F 92% 29.93 in 4.0 mi NNW 19.6 mph 24.2 mph N/A Rain , Thunderstorm Heavy Thunderstorms and Rain
2:15 PM 66.2 °F 64.0 °F 93% 29.95 in 1.8 mi West 6.9 mph - N/A Rain , Thunderstorm Heavy Thunderstorms and Rain
2:35 PM 66.0 °F 63.9 °F 93% 29.94 in 7.0 mi West 6.9 mph - N/A Rain , Thunderstorm Thunderstorms and Rain
2:55 PM 65.7 °F 63.9 °F 94% 29.93 in 10.0 mi SSE 3.5 mph - N/A Rain , Thunderstorm Thunderstorms and Rain
3:15 PM 65.5 °F 63.9 °F 94% 29.91 in 10.0 mi SSE 5.8 mph - N/A Rain , Thunderstorm Light Thunderstorms and Rain
3:35 PM 65.5 °F 64.0 °F 95% 29.88 in 10.0 mi SSE 8.1 mph - N/A Rain , Thunderstorm Light Thunderstorms and Rain
3:55 PM 65.7 °F 64.4 °F 96% 29.84 in 10.0 mi SSE 16.1 mph 19.6 mph N/A Rain Light Rain
4:15 PM 65.8 °F 63.7 °F 93% 29.77 in 10.0 mi SSE 21.9 mph - N/A Rain Light Rain
4:35 PM 65.8 °F 63.5 °F 92% 29.74 in 10.0 mi SSE 13.8 mph 28.8 mph N/A   Clear
4:55 PM 66.2 °F 63.1 °F 90% 29.75 in 10.0 mi SE 13.8 mph - N/A   Clear
5:15 PM 66.2 °F 63.5 °F 91% 29.77 in 10.0 mi South 11.5 mph - N/A   Clear
5:35 PM 66.2 °F 63.1 °F 90% 29.79 in 10.0 mi SSE 6.9 mph - N/A   Clear
5:55 PM 67.3 °F 63.3 °F 87% 29.82 in 10.0 mi North 3.5 mph - N/A   Clear
6:15 PM 68.0 °F 63.3 °F 85% 29.82 in 10.0 mi ENE 3.5 mph - N/A   Clear
6:35 PM 68.9 °F 63.9 °F 84% 29.82 in 10.0 mi ESE 5.8 mph - N/A   Clear
6:55 PM 68.0 °F 63.7 °F 86% 29.83 in 10.0 mi ESE 4.6 mph - N/A   Clear
7:15 PM 67.3 °F 63.9 °F 89% 29.83 in 10.0 mi Calm Calm - N/A   Clear
7:35 PM 67.3 °F 64.4 °F 90% 29.84 in 10.0 mi Calm Calm - N/A   Clear
7:55 PM 66.6 °F 64.0 °F 92% 29.84 in 10.0 mi Calm Calm - N/A   Clear
8:15 PM 65.8 °F 63.7 °F 93% 29.84 in 10.0 mi Calm Calm - N/A   Clear
8:35 PM 64.9 °F 63.3 °F 94% 29.84 in 10.0 mi Calm Calm - N/A   Clear
8:55 PM 64.4 °F 62.8 °F 94% 29.85 in 10.0 mi SE 3.5 mph - N/A   Clear
9:15 PM 64.4 °F 63.0 °F 95% 29.85 in 10.0 mi SE 3.5 mph - N/A   Clear
9:35 PM 64.4 °F 63.0 °F 95% 29.86 in 10.0 mi SSE 4.6 mph - N/A   Clear
9:55 PM 64.2 °F 62.8 °F 95% 29.86 in 10.0 mi SE 5.8 mph - N/A   Clear
10:15 PM 64.0 °F 62.8 °F 96% 29.88 in 10.0 mi SE 4.6 mph - N/A   Clear
10:35 PM 64.0 °F 62.6 °F 95% 29.88 in 10.0 mi SE 3.5 mph - N/A   Clear
10:55 PM 64.0 °F 62.6 °F 95% 29.88 in 10.0 mi SE 4.6 mph - N/A   Scattered Clouds
11:15 PM 64.4 °F 62.6 °F 94% 29.88 in 10.0 mi SE 8.1 mph - N/A   Scattered Clouds
11:35 PM 64.6 °F 62.4 °F 93% 29.87 in 10.0 mi SSE 6.9 mph - N/A   Scattered Clouds
11:55 PM 65.5 °F 62.1 °F 89% 29.87 in 10.0 mi SE 10.4 mph - N/A   Clear